Location: Castle Hill Houses
(40.8186°N, 73.8497°W)
Time: 02:38:47
(UTC+00:00)

PAYLOAD B - Pass Details

Date: 26 January 2020
Orbit: 850 x 871 km, 99.1° (Epoch: 22 February)

Event Time Altitude Azimuth Distance (km) Brightness Sun altitude
Rises 10:31:38 0° 13° (NNE) 3,469 7.4 -18.9°
Reaches altitude 10° 10:34:01 10° 13° (NNE) 2,527 6.7 -18.4°
Maximum altitude 10:39:39 84° 286° (WNW) 880 4.2 -17.4°
Drops below altitude 10° 10:45:14 10° 198° (SSW) 2,505 6.6 -16.3°
Sets 10:47:36 0° 198° (SSW) 3,437 7.3 -15.9°
